FLOCK 1C-7 (40026 NORAD) Tracking and Keplerian Element Data

This shows tracking and keplerian element data for the satellite.

Feedback or suggestion? Click here.




ElementValue
Catalog40026
NameFLOCK 1C-7
Epoch Orbit31770
Epoch Day115.05854745
Epoch Year2020
RAAN46.0706
Inclination97.9452
Eccentricity0.0012436
Argument of Perigee108.179
Mean Anonmoly252.0783
Mean Motion14.90819874
Decay Rate4.82E-06
L11 40026U 14033S 20115.05854745 .00000482 00000-0 54784-4 0 9996
L22 40026 97.9452 46.0706 0012436 108.1790 252.0783 14.90819874317701



Live tracking and technical data element details for FLOCK 1C-7 (NORAD 40026). FLOCK 1C-7 can be tracked NOW for your location showing map with azimuth and elevation plus other details from your city location.







IsCatalogInMostPopularTable: catalog: 40026, numindb: 485
Update: records affected: 1



GetName: 40026 FLOCK 1C-7

Hit Count: updated at: Sun, 19 Apr 2026 07:58:13 GMT